www.pogodaiklimat.ru

Погода и климат >> Архив погоды >> Россия >> Тверская область >> Бологое


ПОГОДА в Бологом

  • Прогноз погоды в Бологом
  • Монитор погоды в Бологом
  • Климат города

АРХИВ ПОГОДЫ в Бологом

Время (UTC), дата Ветер
(напр.,м/с)
 
Видим.   Явления Облачность Т
(С)
Тd
(С)
f
(%)
Тe
(С)
Тes
(С)
Комфортность P
(гПа)
Po
(гПа)
Тmin
(С)
Tmax
(С)
R
(мм)
R24
(мм)
S
(см)
06 13.09 З 4
{10}
10 км 8/8 600 м
[Sc]
+13.4 +7.3 67 +12 +12 1010.8 988.6 +12.0
09 13.09 З 4-10
{11}
20 км 6/6 600 м
[Cu Sc]
+16.4 +6.2 51 +16 +18 1012.3 990.3
12 13.09 ЮЗ 5-13
{13}
20 км 8/8 600 м
[Cu Sc]
+17.4 +5.3 45 +17 +17 1013.7 991.7
15 13.09 З 2
{13}
20 км 3/3 600 м
[Sc]
+16.1 +5.9 51 +16 +17 1014.6 992.5
18 13.09 ЮЗ 1
{13}
10 км ясно +10.6 +6.7 77 +10 +10 1016.3 993.8 +18.0
21 13.09 ЮЗ 1 10 км ясно +8.6 +6.5 87 +8 +8 1017.4 994.7
00 14.09 ЮЗ 1 4000 м дымка ясно +7.4 +6.0 91 +6 +6 1018.1 995.3
03 14.09 ЮЗ 1 4000 м дымка ясно +6.5 +5.5 93 +5 +5 1018.8 995.9 +6.5
06 14.09 ЮЗ 1 10 км 3/0
[Ci fib]
+11.8 +8.0 78 +12 +14 1019.0 996.6 +6.4
09 14.09 ЮЗ 2 20 км 5/3 600 м
[Cu med, cong Ac cast]
+17.0 +6.9 51 +17 +21 1019.0 996.9
12 14.09 ЮЗ 2 20 км 6/6 600 м
[Cu Sc]
+17.2 +5.2 45 +18 +19 1018.2 996.1
15 14.09 ЮЗ 1 20 км 3/1 600 м
[Sc Ci fib]
+17.4 +6.0 47 +18 +19 1017.5 995.5
18 14.09 Ю 1 10 км 3/0
[Ac cast]
+8.3 +6.7 90 +7 +7 1019.0 996.2 +18.7
21 14.09 штиль 0 4000 м дымка ясно +7.5 +6.3 92 +7 +7 1019.5 996.7
00 15.09 ЮЗ 1 4000 м дымка ясно +5.8 +5.0 95 +4 +4 1020.3 997.3
03 15.09 ЮЗ 1 4000 м дымка ясно +4.6 +3.9 95 +3 +3 1020.5 997.4 +4.5
06 15.09 ЮЗ 1 10 км ясно +12.0 +7.7 75 +12 +15 1020.2 997.7 +4.4
09 15.09 ЮЗ 1 20 км 3/1 600 м
[Cu hum Ci fib]
+17.6 +6.7 49 +19 +25 1019.8 997.8
12 15.09 ЮВ 1 20 км 5/3 600 м
[Cu med, cong Ci fib]
+18.0 +5.6 44 +19 +23 1018.0 996.0
15 15.09 ЮВ 1 20 км 9/4 600 м
[Sc Ac cast Ci fib]
+16.1 +7.9 58 +17 +17 1016.8 994.7
18 15.09 ЮВ 1 10 км 8/0
[Ac cast]
+11.8 +8.2 79 +12 +12 1016.5 994.1 +19.2
21 15.09 ЮВ 1 10 км 9/0
[Ac cast]
+11.8 +8.6 81 +12 +12 1014.9 992.5
00 16.09 Ю 1 10 км 9/9 600 м
[Sc]
+11.7 +8.8 82 +12 +12 1013.3 990.9
03 16.09 Ю 1 4000 м дымка 9/6 600 м
[Sc Ac cast]
+9.5 +8.3 92 +9 +9 1012.0 989.5 +9.3
06 16.09 З 2 10 км 8/0
[Ci fib]
+13.2 +8.4 73 +13 +14 1011.2 989.0 +9.3
09 16.09 З 2 10 км 8/4 600 м
[Cu Sc Ac cast]
+15.7 +8.4 62 +16 +18 1010.8 988.8
12 16.09 З 3 10 км 8/8 600 м
[Sc]
+13.0 +7.9 71 +12 +13 1011.9 989.7
15 16.09 З 2 10 км в посл. час ливневой дождь 6/6 600 м
[Sc]
+11.2 +9.0 86 +10 +10 1013.2 990.8 1
18 16.09 З 1 4000 м дымка {ливн. осадки} ясно +7.8 +6.5 91 +7 +7 1015.4 992.7 +16.5 1
21 16.09 З 1 4000 м дымка ясно +6.8 +5.8 93 +6 +6 1016.1 993.3
00 17.09 З 1 4000 м дымка ясно +6.0 +4.9 93 +5 +5 1016.4 993.5
03 17.09 З 2 4000 м дымка ясно +5.0 +4.0 93 +2 +2 1016.7 993.7 +5.0 0.3
06 17.09 З 1 4000 м дымка 10/10 300 м
[St]
+7.2 +6.2 93 +6 +6 1017.6 994.8 +5.0
09 17.09 ЮЗ 3 10 км 8/8 300 м
[St]
+13.8 +7.0 64 +13 +14 1016.5 994.3
12 17.09 ЮЗ 3 20 км 6/3 600 м
[Cu Sc Ac cast Ci fib]
+14.8 +3.4 46 +14 +16 1014.9 992.8
15 17.09 ЮЗ 2 4000 м слабый дождь 10/3 300 м
[Frnb As op]
+11.7 +6.9 72 +11 +11 1014.2 991.8 0.3
18 17.09 Ю 4 4000 м слабый дождь 10/10 300 м
[Frnb Ns]
+10.7 +9.2 90 +8 +8 1011.4 989.0 +16.1 2
21 17.09 ЮЗ 3 4000 м в посл. час ливневой дождь 10/10 300 м
[St]
+11.6 +10.1 91 +10 +10 1009.3 987.0
00 18.09 ЮЗ 1 4000 м дымка {ливн. осадки, дождь} 10/10 300 м
[St]
+11.7 +10.3 91 +11 +11 1008.8 986.6
03 18.09 ЮЗ 2 4000 м дымка {ливн. осадки} 10/10 300 м
[St]
+11.7 +10.1 90 +11 +11 1009.3 987.0 +10.5 4
06 18.09 З 3 10 км {ливн. осадки} 9/9 300 м
[St]
+11.9 +9.1 83 +10 +10 1011.5 989.2 +10.5 3
09 18.09 З 4-10
{11}
10 км 8/5 600 м
[Sc Ac cast Ci fib]
+13.4 +6.9 65 +12 +13 1013.3 991.1
12 18.09 З 4
{11}
20 км 6/4 600 м
[Sc Ci fib]
+14.4 +4.9 53 +13 +15 1014.3 992.1
15 18.09 З 3 20 км 4/1 600 м
[Sc Ac cast Cc]
+13.4 +5.9 60 +12 +12 1014.9 992.6 0.3
18 18.09 ЮЗ 1 10 км 4/0
[Ac cast Ci fib]
+8.6 +6.1 84 +8 +8 1016.4 993.7 +15.5
21 18.09 ЮЗ 1 10 км 8/0
[Ac cast]
+10.7 +7.5 81 +10 +10 1015.5 993.0
00 19.09 ЮЗ 1 10 км 10/10 300 м
[St]
+11.3 +8.5 83 +11 +11 1014.2 991.8
03 19.09 ЮЗ 2 4000 м дымка {морось} 9/4 600 м
[Sc Ac cast]
+11.2 +9.5 89 +10 +10 1013.0 990.6 +8.3 0.0
06 19.09 ЮЗ 2 10 км {морось} 3/0
[Ac cast]
+14.8 +10.8 77 +15 +16 1012.6 990.5 +8.3 0.0
09 19.09 З 3 20 км ясно +20.1 +9.9 52 +22 +27 комфорт 1011.6 989.9
12 19.09 З 3
{10}
20 км ясно +22.4 +9.9 45 +24 +28 комфорт 1011.1 989.6
15 19.09 ЮЗ 2 20 км ясно +21.1 +10.3 50 +23 +23 комфорт 1010.8 989.2
18 19.09 ЮЗ 1 10 км ясно +16.1 +9.6 65 +17 +17 1011.3 989.3 +23.0
21 19.09 ЮЗ 1 10 км ясно +14.8 +10.8 77 +15 +15 1010.6 988.6
00 20.09 З 1 10 км ясно +13.0 +11.3 89 +13 +13 1011.3 989.1

 

Местоположение метеостанции Бологое (Тверская область, Россия): широта 57.88 долгота 34.03 высота над уровнем моря 187 м.

В архиве по умолчанию представлена погода в Бологом за последнюю неделю. Архивные данные за месяц целиком и за предыдущие месяцы, начиная с января 2011 года, Вы можете получить, выбрав интересующий диапазон дат из раскрывающегося списка и нажав кнопку "Ввод!".


*Определитесь, кто Вы:
робот инопланетянин человек

Внимание! Время в таблицах - всемирное. Для получения местного времени необходимо прибавить поправку, которая в Бологом равна 3 ч.

Смотрите также архив погоды в соседних городах и на ближайших метеорологических станциях:

Погода в Валдае (Новгородская область, Россия) (48 км)
Погода в Вышнем Волочке (Тверская область, Россия) (50 км)
Погода в Удомле (Тверская область, Россия) (58 км)
Погода в Боровичах (Новгородская область, Россия) (61 км)
Погода в Охонах (Новгородская область, Россия) (68 км)
Погода в Окуловке (Новгородская область, Россия) (69 км)
Погода в Демянске (Новгородская область, Россия) (96 км)
Погода в Крестцах (Новгородская область, Россия) (99 км)
Погода в Осташкове (Тверская область, Россия) (102 км)
Погода в Максатихе (Тверская область, Россия) (111 км)

Пояснения к столбцам:

Ветер - указаны скорость ветра в м/с - средняя за 10 мин, порывы в срок и между сроками (в фигурных скобках) и направление, откуда дует ветер: С - северный, СВ - северо-восточный, В - восточный, ЮВ - юго-восточный, Ю - южный, ЮЗ - юго-западный, З - западный, СЗ - северо-западный.
Видимость - горизонтальная дальность видимости в метрах или километрах. При видимости от 1 до 10 км при отсутствии осадков обычно наблюдается дымка, при ухудшении видимости до 1 км и менее - туман. В сухую погоду видимость может ухудшаться дымом, пылью или мглою.
Явления - указаны атмосферные явления, наблюдавшиеся в срок или в последний час перед сроком; фигурными скобками обозначены явления, наблюдавшиеся между сроками (за 1-3 часа до срока); квадратными скобками обозначены град или гололедные отложения с указанием их диаметра в мм.
Облачность - указаны через наклонную черту общая и нижняя облачность в баллах и высота нижней границы облаков в метрах; квадратными скобками обозначены формы облаков: Ci - перистые, Cs - перисто-слоистые, Cc - перисто-кучевые, Ac - высококучевые, As - высокослоистые, Sc - слоисто-кучевые, Ns - слоисто-дождевые, Cu - кучевые, Cb - кучево-дождевые. Подробнее классификацию облаков см. в Атласе облаков (PDF).
T - Температура воздуха - температура, измеренная на высоте 2 м над землей.
Td - Температура точки росы - температура, при понижении до которой содержащийся в воздухе водяной пар достигнет насыщения.
f - Относительная влажность воздуха - влажноcть воздуха, измеренная на высоте 2 м над землей.
Te - Эффективная температура - температура, которую ощущает одетый по сезону человек в тени. Характеристика душности погоды. При расчете учитывается влияние влажности воздуха и скорости ветра на теплоощущения человека.
Tes - Эффективная температура на солнце - температура, которую ощущает человек, с поправкой на солнечный нагрев. Характеристика знойности погоды. Зависит от высоты солнца над горизонтом, облачности и скорости ветра. Ночью, в пасмурную погоду, а также при ветре 12 м/с и более поправка равна нулю.
P - Атмосферное давление - приведенное к уровню моря атмосферное давление.
Po - Атмосферное давление - измеренное на уровне метеостанции атмосферное давление.
Tmin - Минимальная температура - минимум температуры воздуха на высоте 2 м над землей.
Tmax - Максимальная температура - максимум температуры воздуха на высоте 2 м над землей.
R - Количество осадков - Количество выпавших осадков за период времени, мм. При наведении курсора мыши на число - период времени, за который выпало указанное количество осадков.
R24 - Количество осадков - Количество выпавших осадков за 24 часа, мм.
S - Снежный покров - Высота снежного покрова, см. При наведении курсора мыши на число - состояние снежного покрова и степень покрытия местности в баллах.